Location: Laan Hart van Zuid
(52.2563°N, 6.7904°E)
Time: 12:08:04
(UTC+02:00)

ISS - Visible Passes

Search period start: 20 April 2024 00:00
Search period end: 30 April 2024 00:00
Orbit: 412 x 418 km, 51.6° (Epoch: 20 April)

Date Brightness Start Highest point End Pass type
(mag) Time Alt. Az. Time Alt. Az. Time Alt. Az.
22 Apr -1.1 05:33:40 10° SSE 05:35:08 12° SE 05:36:37 10° ESE visible
24 Apr -2.0 05:30:48 10° SSW 05:33:31 24° SSE 05:36:16 10° E visible
25 Apr -1.6 04:42:52 12° S 04:44:40 17° SE 04:46:53 10° E visible
26 Apr -1.3 03:55:35 11° SE 03:55:49 11° SE 03:56:56 10° ESE visible
26 Apr -3.0 05:28:41 10° SW 05:31:50 41° SSE 05:35:00 10° E visible
27 Apr -2.6 04:41:02 18° SSW 04:42:48 30° SSE 04:45:47 10° E visible
28 Apr -2.2 03:53:34 22° SSE 03:53:45 22° SSE 03:56:24 10° E visible
28 Apr -3.6 05:26:46 10° WSW 05:30:04 63° SSE 05:33:23 10° E visible
29 Apr -1.2 03:06:01 13° ESE 03:06:01 13° ESE 03:06:45 10° ESE visible
29 Apr -3.4 04:38:51 20° SW 04:40:52 50° SSE 04:44:07 10° E visible
